Location: ????????
(60.4333°N, 46.4710°E)
Time: 18:50:37
(UTC+00:00)

Cosmos 44 Rocket - Pass Details

Date: 25 November 2020
Orbit: 639 x 751 km, 65.1° (Epoch: 16 January)

Event Time Altitude Azimuth Distance (km) Brightness Sun altitude
Rises 13:26:14 0° 284° (WNW) 3,100 7.5 -9.3°
Reaches altitude 10° 13:28:37 10° 290° (WNW) 2,199 6.6 -9.6°
Maximum altitude 13:33:32 51° 7° (N) 914 3.7 -10.1°
Enters shadow 13:38:00 13° 81° (E) 2,045 5.1 -10.6°
